Torna al catalogo

STARLINK-37277

AttivoComunicazioniSSO
NORAD 68751·PAYLOAD·🇺🇸 United States

Lanciato Apr 15, 2026 da Vandenberg Space Force Base

Loading…

Prossimi Passaggi (prossime 24 ore)

TLE

AggiornatoSource: CelesTrak SupGP

Epoca: Sep 15, 2026, 03:04 UTC

1 68751C 26082Z   26258.12826389  .00009087  00000+0  28199-3 0  2580
2 68751  97.2845 120.3858 0001952  94.5866 286.1371 15.33443485    15

Traccia STARLINK-37277 in tempo reale con AllMySat

Download on the App Store